Regional Weather Roundup
Issued by NWS

Home | Current Version | Previous Version | Graphics & Text | Print | Product List | Glossary On
Versions: 1 2 3 4 5 6 7 8 9 10 11 12 13 14 15 16 17 18 19 20 21 22 23 24 25 26 27 28
000
ASUS45 KBOI 300510
RWRID

IDAHO REGIONAL WEATHER ROUNDUP
NATIONAL WEATHER SERVICE BOISE ID
1100 PM MDT FRI JUL 29 2016

NOTE: "FAIR" INDICATES FEW OR NO CLOUDS BELOW 12000 FEET
WITH NO SIGNIFICANT WEATHER AND/OR OBSTRUCTIONS TO VISIBILITY

IDZ012-014-300600-
SOUTHWEST IDAHO


CITY           SKY/WX    TMP DP  RH WIND       PRES   REMARKS
BOISE          CLEAR     85  42  22 CALM      29.81S
CALDWELL       CLEAR     76  57  51 N3        29.79R
MOUNTAIN HOME  CLEAR     82  38  20 NW8       29.83R
$$

IDZ016-017-300600-
SOUTHCENTRAL IDAHO


CITY           SKY/WX    TMP DP  RH WIND       PRES   REMARKS
BURLEY         CLEAR     67  51  56 SW8       29.92R
JEROME         CLEAR     78  47  33 SE3       29.92S
TWIN FALLS     CLEAR     80  39  23 SW9       29.94R
$$

IDZ019>023-300600-
SOUTHEAST IDAHO


CITY           SKY/WX    TMP DP  RH WIND       PRES   REMARKS
IDAHO FALLS    CLEAR     79  39  23 S9        29.95S
POCATELLO      CLEAR     83  36  18 S12       29.95R
REXBURG        CLEAR     73  41  31 VRB5      29.96S
$$

IDZ006-010-011-018-031-032-300600-
CENTRAL IDAHO MOUNTAINS


CITY           SKY/WX    TMP DP  RH WIND       PRES   REMARKS
MCCALL         CLEAR     66  49  54 NW5       30.01S
HAILEY         MOCLDY    73  37  27 NW9       30.02S
STANLEY          N/A     56  31  38 S5        30.15R
SALMON         CLEAR     73  43  33 S3        29.90R
CHALLIS        CLEAR     78  30  17 W8        29.98R
$$

IDZ002-004-006-007-026-300600-
NORTHERN IDAHO


CITY           SKY/WX    TMP DP  RH WIND       PRES   REMARKS
LEWISTON       CLEAR     85  43  22 S7        29.74S
LOWELL           N/A     70  58  65 CALM      29.81R
COEUR D`ALENE  CLEAR     75  55  50 NW3       29.77S
MULLAN PASS    CLEAR     70  40  33 VRB3      30.09F
$$




USA.gov is the U.S. government's official web portal to all federal, state and local government web resources and services.